User: anonymous   Login
Location: Unspecified
(0.0000°N, 0.0000°E)
Time: 09:22:18
(UTC+00:00)
Language:

YAOGAN 11 - Orbit

View from above orbital plane
View from above orbital plane
View from above satellite
View from above satellite

Ground track
Ground track

The orbit data is extracted from the following two-line orbital elements,

1 37165U 10047A   18018.76289333  .00000059  00000-0  16538-4 0  9994
2 37165  98.3109  92.8125 0036696 337.9879  21.9754 14.76507387394481
Epoch (UTC): 18 January 2018 18:18:33
Eccentricity: 0.0036696
inclination: 98.3109°
perigee height: 614 km
apogee height: 666 km
right ascension of ascending node: 92.8125°
argument of perigee: 337.9879°
revolutions per day: 14.76507387
mean anomaly at epoch: 21.9754°
orbit number at epoch: 39448

The dashed part of the orbit path shows where the satellite is in the earth's shadow,  

DLR